Regional Weather Roundup
Issued by NWS

Home | Current Version | Previous Version | Text Only | Print | Product List | Glossary Off
Versions: 1 2 3 4 5 6 7 8 9 10 11 12 13 14 15 16 17 18 19 20 21 22 23 24 25 26 27 28 29 30 31 32 33 34 35 36 37 38 39 40 41 42 43 44 45 46 47 48 49 50

000
ASUS45 KABQ 231710
RWRNM
WEATHER ROUNDUP FOR NEW MEXICO
NATIONAL WEATHER SERVICE ALBUQUERQUE NM
1100 AM MDT THU OCT 23 2014

NOTE: "FAIR" MEANS FEW OR NO CLOUDS BELOW 12,000 FEET AGL WITH NO
       SIGNIFICANT WEATHER OR OBSTRUCTIONS TO VISION.

      THIS PRODUCT IS RELEASED AS TWO VERSIONS.  ONE VERSION NEAR
      THE TOP OF THE HOUR CONTAINING PRELIMINARY DATA FROM ALBUQUERQUE
      AND OTHER STATIONS.  A FINAL VERSION WITH ADDITIONAL DATA IS
      ISSUED ABOUT 10 MINUTES AFTER THE HOUR.

NMZ501-503-504-510>518-231800-
NORTHWEST PLATEAU/NORTHCENTRAL MOUNTAINS

CITY           SKY/WX    TMP DP  RH WIND       PRES   REMARKS
FARMINGTON     SUNNY     57  39  51 E6        30.31S
LOS ALAMOS     SUNNY     55  35  46 CALM      30.37S
SANTA FE       SUNNY     60  34  37 N9        30.32S
TAOS           SUNNY     55  34  44 CALM      30.37R
ANGEL FIRE     FAIR      55  33  44 CALM      30.39F

$$
NMZ402-403-502-505>509-231800-
WESTCENTRAL MOUNTAINS/SOUTHWEST MOUNTAINS

CITY           SKY/WX    TMP DP  RH WIND       PRES   REMARKS
GALLUP         SUNNY     58  37  45 CALM      30.36R
GRANTS         SUNNY     57  37  47 N5        30.38R
SILVER CITY    SUNNY     66  46  48 SE3       30.31S

$$
NMZ407-409-411-412-231800-
SOUTHERN DESERTS

CITY           SKY/WX    TMP DP  RH WIND       PRES   REMARKS
LORDSBURG      FAIR      68  52  56 MISG      30.24S
DEMING         SUNNY     69  52  54 VRB3      30.24F
LAS CRUCES     SUNNY     69  52  54 CALM      30.27S
HOLLOMAN AFB   SUNNY     70  52  52 CALM      30.23F
T OR C         SUNNY     67  49  52 VRB3      30.26

$$
NMZ519>523-231800-
CENTRAL VALLEYS/CENTRAL HIGHLANDS

CITY           SKY/WX    TMP DP  RH WIND       PRES   REMARKS
ALBUQUERQUE    MOSUNNY   62  45  53 CALM      30.30S
DOUBLE EAGLE   SUNNY     63  45  51 S5        30.32R
MORIARTY ARPT  FAIR      62  43  50 CALM      30.32F
CLINES CORNERS SUNNY     62  38  40 VRB5      30.32F
BELEN          FAIR      64  38  38 W3        30.29F
SOCORRO        FAIR      64  42  45 CALM      30.28F

$$
NMZ524>526-539-540-231800-
SOUTHCENTRAL MOUNTAINS

CITY           SKY/WX    TMP DP  RH WIND       PRES   REMARKS
RUIDOSO        SUNNY     63  45  51 NW6       30.37R

$$
NMZ527>531-231800-
NORTHEAST HIGHLANDS/NORTHEAST PLAINS

CITY           SKY/WX    TMP DP  RH WIND       PRES   REMARKS
LAS VEGAS      SUNNY     65  29  25 VRB7      30.29F
RATON          SUNNY     64  37  36 CALM      30.25S
CLAYTON        SUNNY     70  41  34 NE16      30.19S

$$
NMZ532>537-231800-
EASTCENTRAL PLAINS

CITY           SKY/WX    TMP DP  RH WIND       PRES   REMARKS
TUCUMCARI      SUNNY     69  47  45 W6        30.16F
CANNON AFB     SUNNY     71  52  51 NW14      30.19F
CLOVIS AIRPORT SUNNY     70  52  52 NW10      30.21F

$$
NMZ028-029-538-231800-
SOUTHEAST PLAINS

CITY           SKY/WX    TMP DP  RH WIND       PRES   REMARKS
ROSWELL        PTSUNNY   60  56  86 CALM      30.20S FOG
CARLSBAD       CLOUDY    61  57  87 CALM      30.20R FOG
HOBBS          CLOUDY    57  57 100 SW3       30.22R FOG


$$



USA.gov is the U.S. government's official web portal to all federal, state and local government web resources and services.